Wind_Speed
28 29 29 29 28 28 28 29 29 28 28 27 28 28 28 27 27 28 27 27 28 28 29 30 30 31 31 31 31 31 32 33 33 34 34 35 37 38 40 42 42 41 41 41
27 28 29 29 29 29 28 29 29 29 28 27 28 29 28 28 28 28 27 27 28 29 29 30 30 31 31 31 31 31 32 32 33 33 33 35 35 36 38 40 41 42 41 41
29 28 29 29 28 28 28 28 28 28 28 28 28 28 28 28 27 27 28 28 28 28 29 29 30 31 31 31 31 31 31 32 33 33 34 34 34 35 36 37 39 41 41 40
30 30 30 28 28 28 28 27 27 27 27 27 28 29 29 28 28 28 28 28 28 28 29 29 29 29 30 30 31 31 31 31 32 32 32 33 33 34 35 36 38 39 39 39
29 30 30 28 27 27 27 27 27 27 27 27 28 29 29 29 29 29 29 29 29 29 29 29 29 29 29 29 30 31 31 32 32 32 31 31 32 33 35 36 37 38 38 38
30 30 30 27 26 26 27 28 27 28 28 28 29 29 29 29 30 30 30 30 30 30 30 30 29 29 29 29 29 30 30 31 32 32 32 32 32 33 33 35 36 37 37 38
29 30 29 27 27 27 28 28 28 29 30 30 30 30 29 30 30 30 30 30 30 30 30 30 30 29 30 29 29 30 30 31 32 32 32 32 32 33 34 35 36 36 36 37
29 29 28 27 28 29 29 29 29 29 29 30 30 30 30 30 30 30 30 30 30 30 30 31 31 30 30 30 29 30 31 33 33 34 34 34 33 33 33 34 34 35 35 34
28 28 28 28 28 27 28 28 28 28 29 30 30 30 30 31 31 31 30 29 29 29 30 30 31 31 30 30 30 31 32 33 34 34 35 34 34 34 33 33 34 34 35 35
29 29 29 28 28 28 28 28 28 28 29 30 30 31 31 31 31 30 30 29 29 29 30 30 31 31 31 31 32 32 32 33 33 34 35 34 33 33 33 33 33 33 34 34
29 28 28 28 29 30 30 30 29 30 30 31 31 31 31 30 30 30 30 29 29 30 30 31 31 31 32 32 32 32 32 32 32 33 34 33 33 32 32 32 33 33 34 34
28 28 28 28 29 31 31 32 32 31 31 31 32 31 31 31 31 30 30 30 30 30 30 31 31 32 32 32 32 32 31 31 31 31 32 32 32 31 32 32 32 33 33 33
28 28 28 29 29 29 30 31 31 31 31 31 31 31 31 31 31 31 30 30 30 30 31 31 31 32 32 32 32 32 31 30 30 30 31 31 31 31 31 31 32 32 33 33
27 27 28 28 28 28 29 29 29 30 31 31 30 30 30 31 31 30 31 31 31 31 31 31 31 31 31 31 31 30 30 30 30 30 30 30 31 31 31 31 30 31 31 31
26 27 28 28 27 28 28 28 28 29 29 29 29 29 29 30 30 30 30 30 30 30 30 30 30 30 30 29 30 30 29 29 29 29 30 30 30 30 30 30 30 30 30 30
26 27 28 28 28 28 28 28 28 28 28 27 27 28 28 28 28 28 29 29 29 29 29 29 28 29 29 29 29 29 28 28 28 28 29 29 28 28 29 29 28 28 28 28
26 27 28 28 28 28 28 28 27 27 28 27 27 27 27 27 27 27 28 28 28 27 27 27 27 28 28 28 28 28 27 27 27 27 26 27 27 28 28 28 28 27 27 26
25 26 26 26 26 26 26 26 26 27 27 27 27 27 27 27 27 27 27 26 26 26 26 27 27 27 27 26 26 26 26 26 26 25 25 26 26 27 27 27 27 27 27 26
24 25 25 25 25 25 26 26 26 26 26 26 27 27 26 26 26 26 26 26 25 25 26 26 26 25 25 25 25 24 24 24 25 25 25 25 26 26 26 26 26 27 27 26
24 24 24 25 25 25 26 26 25 25 25 26 26 26 25 25 25 25 25 25 25 25 25 25 25 24 24 24 24 24 24 24 24 24 25 25 25 25 24 24 25 25 26 26
23 23 24 24 24 24 25 25 25 24 24 24 24 24 24 24 24 24 24 24 24 24 24 23 23 23 23 22 22 22 22 22 22 22 23 23 24 23 23 23 23 23 24 25
22 23 23 23 23 23 23 23 23 23 23 23 23 23 23 23 23 23 23 23 23 23 23 22 22 22 22 21 20 20 20 20 20 20 20 21 21 22 22 22 22 23 23 23
22 22 22 22 22 22 22 22 22 22 22 22 22 22 22 22 22 22 22 22 22 22 21 21 21 20 20 19 19 19 19 18 18 18 18 19 19 20 20 21 22 23 23 23
21 21 21 21 21 21 21 21 21 21 21 21 21 21 20 20 20 20 19 19 20 19 19 18 18 17 17 17 17 17 18 18 18 18 18 19 19 20 20 20 21 22 23 23
21 21 20 20 20 20 20 20 21 20 20 20 20 20 19 19 19 18 18 18 18 17 17 17 17 16 16 16 16 16 17 17 17 18 18 19 19 19 19 20 20 21 21 22
20 20 19 19 19 19 19 19 19 20 20 20 19 19 19 18 18 18 17 17 17 17 17 16 16 16 16 15 15 15 16 16 16 17 17 18 18 18 18 19 19 19 20 21
18 18 18 18 18 18 18 18 18 18 17 18 18 17 17 16 17 17 17 17 17 17 17 16 16 16 16 15 15 15 16 16 15 15 16 16 17 17 18 18 18 18 19 20
Wind_Direction
263 264 262 262 261 264 266 269 272 273 274 276 278 277 277 277 276 276 275 274 272 272 272 270 269 270 270 270 270 266 263 263 263 263 263 263 262 259 256 255 253 253 253 255
262 263 262 262 261 262 266 268 270 272 273 274 277 277 277 277 276 275 274 273 273 274 274 273 271 270 269 270 271 268 265 264 263 262 261 263 262 259 257 256 255 254 253 255
264 263 262 261 261 264 266 268 270 272 274 274 276 277 277 276 275 275 274 274 275 275 275 274 272 271 269 271 271 269 267 265 264 263 261 262 262 260 258 257 257 256 256 256
267 264 263 264 264 265 267 267 269 272 274 274 275 277 278 277 276 276 276 276 276 276 276 275 274 273 271 270 270 269 267 265 264 263 262 260 258 257 257 256 256 256 256 257
267 265 264 264 265 266 266 266 268 271 272 274 275 276 277 278 278 277 278 278 277 276 276 275 274 274 272 270 270 270 268 265 263 263 263 261 257 256 256 256 256 255 256 256
264 264 264 267 266 265 267 269 270 273 274 276 277 277 277 278 278 278 278 278 277 276 277 276 275 274 272 272 270 269 268 266 264 264 265 263 260 258 258 257 256 256 257 257
263 263 264 267 268 268 269 273 274 274 275 277 278 279 279 279 279 279 279 279 278 276 276 275 274 273 273 272 271 271 270 267 265 264 265 263 260 260 259 258 257 256 257 257
261 263 265 266 267 267 269 271 273 274 275 276 277 278 279 279 279 280 280 279 278 276 275 274 274 273 273 272 272 272 271 269 266 265 264 261 259 260 260 259 257 256 257 257
262 264 266 267 268 269 270 272 273 275 276 276 276 277 278 278 279 279 279 278 277 277 276 275 274 273 273 273 272 273 273 270 267 266 264 261 259 258 258 257 257 256 256 257
266 266 267 268 269 271 272 273 273 275 276 277 278 278 277 277 278 277 277 278 278 277 276 275 274 274 273 274 273 273 274 272 267 263 261 260 259 257 256 254 254 255 255 256
268 269 270 270 270 271 273 273 274 275 276 278 279 279 277 277 277 277 278 278 278 278 277 275 274 274 274 275 274 273 273 272 269 264 260 258 256 255 255 253 253 253 255 257
270 272 273 272 271 272 273 273 274 275 276 277 279 279 277 276 276 277 277 278 278 278 278 277 276 275 275 275 274 273 274 272 268 264 260 257 254 253 254 253 253 253 255 257
272 273 274 275 274 273 272 272 273 274 275 277 278 278 276 276 276 277 278 278 279 279 279 277 276 276 276 276 274 273 272 271 268 264 260 257 255 253 253 254 254 253 254 255
272 273 274 274 274 273 272 273 274 276 277 278 279 277 275 275 276 276 277 278 279 279 279 278 277 276 276 275 274 272 270 269 267 265 261 257 255 255 255 255 255 254 253 253
272 273 274 275 275 275 275 275 276 278 279 279 278 277 277 276 275 275 277 278 279 279 279 279 278 277 276 275 274 272 271 269 267 264 261 257 255 255 254 254 254 254 252 252
270 272 274 276 277 278 277 277 277 278 278 278 277 277 278 277 276 275 276 277 278 278 278 278 277 276 276 275 274 273 271 269 266 265 261 256 254 253 253 252 253 253 252 250
271 272 273 276 278 278 277 277 276 276 277 277 277 278 278 278 277 277 277 277 277 276 276 276 276 276 275 275 274 272 270 268 266 264 261 256 253 252 251 252 251 251 249 249
274 274 276 277 278 277 277 277 277 278 277 277 277 278 278 279 279 278 277 276 275 274 274 275 277 277 276 275 273 271 268 266 263 261 260 256 254 252 250 250 249 249 248 250
278 279 278 278 279 280 280 280 280 279 278 278 278 279 279 278 278 278 275 275 275 274 275 275 276 277 277 276 273 269 266 265 262 260 260 257 253 251 250 249 248 248 248 250
281 282 281 281 282 282 282 281 282 282 280 279 279 278 277 278 278 278 276 275 275 276 276 276 276 277 276 274 271 268 266 264 262 260 259 256 253 251 249 248 247 247 248 249
283 284 284 284 284 283 282 282 282 282 282 281 279 277 277 277 278 279 278 276 276 275 275 275 275 275 275 273 269 266 264 263 262 260 259 257 253 249 247 247 247 246 247 248
287 288 287 286 285 283 282 282 283 284 283 282 280 278 277 277 278 278 278 276 275 275 274 274 274 274 273 271 267 264 262 262 261 259 258 256 252 248 247 247 247 247 247 248
289 289 289 287 286 283 283 284 284 283 283 281 279 278 278 277 278 278 278 276 276 275 274 274 274 272 270 267 265 262 260 260 259 258 257 254 251 250 249 249 249 248 248 248
288 288 288 287 286 285 284 284 283 283 282 281 279 278 278 277 278 278 278 277 276 274 273 273 272 270 267 265 264 262 261 259 259 258 255 253 252 251 251 251 251 251 249 250
289 287 288 288 287 286 285 284 282 282 282 281 279 277 277 277 277 277 277 277 275 274 272 270 269 268 267 265 264 263 263 262 260 257 254 254 254 253 252 251 252 252 251 251
290 288 288 288 288 286 286 285 284 283 282 281 279 278 278 277 276 275 276 276 275 274 273 271 268 266 266 265 265 265 264 263 261 259 256 253 252 253 252 252 253 253 253 252
290 288 287 288 288 288 287 286 285 285 284 283 281 280 279 278 278 276 275 275 274 274 273 269 267 266 265 264 265 264 264 262 261 261 257 255 254 254 253 253 254 254 253 252
Height
5589 5589 5590 5591 5592 5592 5592 5592 5592 5593 5593 5594 5592 5591 5590 5589 5589 5588 5587 5587 5586 5586 5585 5585 5585 5584 5584 5583 5583 5583 5583 5583 5583 5584 5584 5585 5586 5587 5589 5590 5593 5595 5597 5600
5580 5581 5581 5582 5583 5583 5584 5584 5584 5584 5585 5585 5584 5583 5582 5582 5581 5580 5579 5579 5578 5578 5577 5576 5576 5575 5575 5575 5574 5574 5574 5574 5574 5575 5575 5576 5576 5577 5579 5581 5583 5584 5587 5589
5572 5572 5572 5573 5576 5576 5576 5577 5577 5576 5578 5577 5575 5575 5574 5573 5573 5572 5571 5571 5570 5569 5568 5568 5567 5567 5566 5566 5565 5565 5565 5565 5565 5566 5566 5566 5567 5568 5570 5571 5572 5574 5576 5579
5563 5564 5563 5569 5568 5568 5568 5569 5569 5568 5569 5568 5567 5566 5566 5565 5564 5563 5563 5562 5561 5560 5560 5559 5558 5558 5557 5557 5556 5556 5556 5556 5556 5556 5557 5557 5558 5559 5560 5561 5562 5564 5566 5568
5555 5554 5555 5559 5560 5560 5560 5560 5560 5560 5560 5559 5558 5558 5558 5556 5555 5555 5554 5554 5553 5552 5551 5550 5550 5549 5548 5548 5547 5547 5547 5547 5547 5547 5547 5548 5548 5549 5550 5551 5553 5555 5556 5558
5546 5546 5547 5552 5552 5551 5552 5552 5553 5551 5551 5550 5550 5550 5550 5548 5547 5546 5545 5545 5544 5543 5542 5542 5541 5540 5540 5539 5538 5538 5538 5538 5538 5538 5538 5538 5539 5539 5540 5542 5543 5545 5546 5548
5538 5537 5539 5543 5542 5543 5544 5545 5544 5542 5542 5542 5541 5541 5541 5539 5538 5537 5536 5536 5535 5534 5533 5532 5532 5531 5531 5530 5530 5529 5529 5528 5528 5528 5529 5529 5529 5530 5531 5532 5533 5535 5536 5538
5529 5530 5534 5533 5533 5534 5535 5534 5534 5533 5533 5532 5532 5531 5531 5530 5529 5528 5527 5526 5525 5524 5524 5523 5522 5522 5522 5521 5521 5520 5519 5519 5518 5518 5519 5519 5520 5520 5521 5522 5523 5524 5526 5527
5522 5524 5524 5524 5524 5525 5525 5525 5524 5524 5524 5523 5522 5522 5521 5520 5520 5518 5517 5517 5516 5515 5515 5514 5513 5513 5512 5512 5511 5510 5510 5509 5508 5508 5508 5509 5509 5510 5511 5512 5513 5514 5515 5517
5513 5514 5515 5515 5515 5515 5515 5515 5515 5514 5514 5513 5512 5512 5511 5511 5510 5509 5508 5507 5507 5506 5505 5504 5504 5503 5502 5502 5501 5500 5499 5498 5498 5498 5498 5498 5499 5500 5501 5501 5502 5504 5505 5506
5504 5506 5506 5506 5506 5506 5506 5505 5505 5504 5504 5503 5503 5502 5501 5501 5500 5499 5499 5498 5497 5496 5495 5495 5494 5493 5492 5492 5491 5490 5489 5488 5487 5487 5487 5488 5489 5490 5491 5492 5492 5494 5495 5496
5496 5497 5496 5497 5496 5496 5495 5495 5495 5494 5494 5493 5492 5492 5491 5491 5490 5490 5489 5488 5487 5487 5486 5485 5484 5483 5482 5481 5481 5480 5479 5478 5477 5477 5477 5478 5479 5480 5481 5482 5483 5484 5485 5486
5487 5487 5486 5486 5486 5486 5485 5485 5485 5484 5484 5484 5483 5482 5481 5481 5480 5480 5479 5478 5478 5477 5476 5475 5474 5473 5472 5471 5470 5469 5469 5468 5467 5467 5467 5468 5469 5470 5471 5472 5473 5474 5475 5476
5477 5477 5477 5477 5477 5476 5475 5475 5475 5475 5474 5473 5473 5472 5471 5471 5470 5470 5469 5468 5467 5467 5465 5464 5463 5462 5461 5460 5459 5459 5458 5458 5457 5457 5457 5458 5459 5460 5461 5462 5463 5464 5466 5467
5468 5468 5468 5467 5467 5466 5466 5466 5465 5465 5464 5463 5462 5462 5461 5460 5460 5459 5459 5458 5457 5456 5455 5454 5453 5452 5451 5450 5449 5449 5448 5448 5448 5447 5447 5448 5449 5450 5452 5453 5454 5455 5456 5457
5459 5459 5458 5458 5458 5457 5457 5456 5456 5455 5454 5454 5453 5452 5451 5450 5450 5449 5448 5448 5447 5446 5445 5444 5443 5442 5441 5440 5439 5439 5438 5438 5438 5438 5438 5439 5440 5441 5442 5444 5445 5446 5447 5449
5450 5450 5449 5449 5448 5447 5447 5447 5446 5446 5445 5444 5443 5442 5442 5441 5440 5439 5438 5437 5437 5436 5435 5434 5433 5432 5431 5430 5430 5429 5429 5429 5429 5429 5429 5430 5431 5432 5433 5435 5436 5437 5439 5440
5442 5442 5441 5440 5439 5438 5437 5437 5437 5436 5435 5435 5434 5433 5432 5431 5430 5430 5429 5428 5427 5427 5426 5425 5424 5423 5422 5421 5420 5420 5420 5420 5420 5420 5421 5421 5422 5423 5425 5426 5428 5429 5431 5432
5434 5433 5432 5431 5431 5430 5429 5428 5427 5427 5426 5425 5424 5424 5423 5422 5421 5420 5419 5419 5418 5418 5417 5416 5415 5414 5413 5412 5411 5411 5411 5411 5411 5412 5412 5413 5414 5415 5416 5418 5419 5421 5423 5424
5426 5425 5424 5423 5422 5421 5420 5419 5418 5417 5417 5416 5415 5415 5414 5413 5412 5411 5411 5410 5409 5409 5408 5407 5406 5405 5404 5404 5403 5403 5403 5403 5403 5403 5404 5405 5406 5407 5408 5410 5411 5413 5415 5416
5418 5417 5416 5415 5414 5413 5412 5411 5410 5409 5408 5407 5406 5406 5405 5405 5404 5403 5402 5401 5401 5400 5399 5398 5398 5397 5396 5396 5395 5395 5395 5395 5395 5396 5396 5397 5398 5400 5401 5402 5404 5405 5407 5408
5410 5409 5407 5406 5405 5404 5403 5402 5401 5400 5399 5399 5398 5397 5397 5396 5395 5395 5394 5393 5393 5392 5391 5390 5390 5390 5389 5388 5388 5388 5388 5388 5389 5389 5389 5390 5391 5393 5394 5395 5396 5398 5399 5401
5403 5401 5400 5398 5397 5396 5395 5394 5393 5393 5392 5391 5390 5390 5389 5388 5388 5387 5386 5385 5385 5384 5383 5383 5382 5382 5381 5381 5381 5381 5382 5382 5382 5383 5383 5384 5385 5386 5387 5388 5389 5391 5392 5393
5396 5394 5393 5391 5390 5389 5388 5387 5386 5385 5384 5384 5383 5382 5382 5381 5380 5379 5379 5378 5377 5377 5376 5376 5375 5375 5375 5375 5375 5375 5375 5376 5376 5377 5377 5378 5379 5380 5381 5382 5383 5384 5385 5386
5389 5388 5386 5385 5383 5382 5381 5380 5379 5378 5377 5376 5375 5375 5374 5374 5373 5373 5372 5372 5371 5370 5370 5370 5369 5369 5369 5369 5369 5369 5369 5370 5370 5371 5371 5372 5373 5373 5374 5375 5376 5377 5378 5379
5382 5381 5379 5378 5376 5375 5374 5373 5371 5370 5369 5369 5368 5368 5368 5367 5367 5366 5366 5365 5365 5365 5364 5364 5364 5364 5364 5364 5364 5364 5364 5364 5364 5365 5365 5366 5367 5367 5368 5369 5370 5370 5371 5372
5376 5374 5373 5372 5370 5369 5368 5366 5365 5364 5363 5363 5362 5362 5361 5361 5360 5360 5360 5360 5359 5359 5359 5358 5358 5358 5358 5358 5359 5359 5359 5359 5359 5359 5360 5360 5361 5361 5362 5363 5363 5364 5365 5366